[[{"header":{"parameterUnit":"m.s-1","parameterCategory":1,"la1":30.2991,"la2":30.254,"lo1":-89.0895,"lo2":-89.0444,"dy":0.0017,"dx":0.0017,"nx":28,"ny":28,"refTime":"2025-12-30T03:00:00:Z","depth":0,"parameterNumber":2,"parameterNumberName":"U-component_of_WINDS"},"data":[0,0,0,0,0,0,0,0,0,0,0,0,0,0,0,0,0,0,0,0,0,0,0,0,0,0,0,0,0,0,0,0,0,0,0,0,0,0,0,0,0,0,0,0,0,0,0,0,0,0,0,0,0,0,0,0,0,0,3.9591,3.9592,0,3.9722,3.9724,3.9725,3.968,3.9677,3.9674,3.9671,3.9807,3.9813,3.982,0,0,0,0,0,0,0,0,0,0,0,0,0,3.9302,3.9307,3.9591,3.9593,3.9594,3.9722,3.9724,3.9726,3.968,3.9677,3.9673,3.967,3.9805,3.9813,3.982,0,0,0,0,0,0,0,0,0,0,0,0,0,3.943,3.9309,3.9591,3.9587,3.9588,3.9722,3.9724,3.9726,3.9681,3.9677,3.9672,3.9668,3.9803,3.9812,3.9821,3.9967,0,0,3.985,3.9854,0,0,0,0,0,0,0,0,3.9422,3.944,3.9586,3.9587,3.9589,3.968,3.9672,3.9807,3.9682,3.9646,3.9671,3.9666,3.9769,3.9781,3.9815,3.9973,3.9979,3.9851,3.9857,3.9861,3.9864,0,0,0,0,0,0,0,3.9414,3.9434,3.9643,3.9588,3.959,3.9579,3.9592,3.9697,3.973,3.9649,3.9646,3.9662,3.9769,3.9806,3.9818,3.9981,3.9851,3.9859,3.9865,3.9869,4.0265,4.0269,0,0,0,0,0,0,3.9404,3.9427,3.9639,3.9647,3.9493,3.9588,3.9603,3.9655,3.9729,3.9736,3.9665,3.9659,3.9792,3.9807,3.9822,3.9997,3.9861,3.987,3.9875,4.026,4.0266,4.0271,0,0,0,0,0,0,3.9398,3.9423,3.9633,3.9536,3.9562,3.9597,3.9657,3.966,3.9697,3.9741,3.9747,3.9697,3.9789,3.9809,3.9931,4.0001,3.9874,3.9883,4.0254,4.0262,4.0268,4.0347,0,0,0,0,0,0,3.939,3.9421,3.9477,3.9538,3.9568,3.974,3.9661,3.9666,3.9714,3.9707,3.9773,3.978,3.9787,3.9917,3.994,4.0012,3.989,4.0248,4.0257,4.0266,4.0339,4.0356,4.0372,0,0,0,0,0,3.938,3.9494,3.948,3.9506,3.9638,3.9744,3.9761,3.9767,3.9719,3.9776,3.9804,3.9778,3.999,3.993,3.9956,4.0031,4.0244,4.0255,4.0265,4.0331,4.0353,4.0371,0,0,0,0,0,0,3.9441,3.9502,3.9487,3.9625,3.9679,3.9736,3.9807,3.979,3.9859,3.985,3.9855,3.987,3.9995,4.0025,3.9958,4.0175,4.011,4.0126,4.0151,4.0172,4.0188,4.0178,3.9898,0,0,0,0,0,3.947,3.9551,3.9601,3.9718,3.9746,3.9772,3.9818,3.9818,3.9875,3.9898,3.9935,3.9992,4.0071,4.0123,4.0199,4.0343,4.0356,4.0407,4.0424,4.0437,4.0451,4.0529,4.0552,4.0307,4.0306,4.0306,0,0,3.9532,3.9576,3.9627,3.9731,3.9773,3.9857,3.9792,3.9883,3.9945,3.9912,4.0029,4.0059,4.0122,4.0256,4.0316,4.0285,4.0522,4.0451,4.0461,4.0468,4.0542,4.0566,4.0586,4.0314,4.0313,4.0311,0,0,3.9688,3.9729,3.983,3.9874,3.9939,3.9955,3.998,4.0039,4.0057,4.0175,4.0151,4.0226,4.0362,4.0408,4.0449,4.0622,4.06,4.0647,4.0732,4.0808,4.0827,4.0844,4.0905,4.0927,4.0661,4.0661,4.0661,0,3.9757,3.9881,3.9885,3.9978,4.0024,3.9998,4.0101,4.0143,4.0229,4.0262,4.0225,4.0396,4.0437,4.058,4.0622,4.0657,4.0685,4.0639,4.0824,4.0841,4.0857,4.0915,4.0938,4.0666,4.0665,4.0665,4.0664,0,3.9962,4.0049,4.0123,4.0207,4.0261,4.0359,4.0377,4.0433,4.0428,4.0448,4.0568,4.0616,4.07,4.0735,4.0731,4.0878,4.0856,4.0822,4.0756,4.0886,4.094,4.0962,4.0673,4.0671,4.067,4.0669,0,0,4.016,4.0243,4.027,4.0307,4.0377,4.0444,4.054,4.0622,4.0669,4.073,4.081,4.0926,4.0895,4.0942,4.0943,4.101,4.1142,4.0968,4.0969,4.0998,4.1306,4.133,4.1356,4.1129,4.1133,4.1136,4.13,0,4.032,4.0488,4.0494,4.0648,4.0728,4.0704,4.0788,4.0839,4.0861,4.0933,4.0957,4.1039,4.0991,4.1019,4.1084,4.1113,4.1204,4.1101,4.1203,4.1207,4.1187,4.1385,4.1411,4.1563,4.1322,4.1325,4.1328,0,4.0529,4.0595,4.0757,4.0814,4.0848,4.0923,4.0998,4.1067,4.1125,4.1136,4.1188,4.118,4.1278,4.1209,4.1345,4.1275,4.1317,4.1337,4.1343,4.1352,4.1275,4.1398,4.1612,4.1635,4.1362,4.1359,4.1357,0,4.0656,4.0786,4.0899,4.0931,4.1001,4.1054,4.1086,4.1139,4.1188,4.1254,4.1285,4.1363,4.1405,4.1464,4.1477,4.1426,4.1613,4.1545,4.1624,4.1624,4.1664,4.1661,4.1887,4.1693,4.1693,4.1692,4.1692,0,4.0834,4.0933,4.0956,4.1026,4.1137,4.1143,4.1252,4.128,4.1328,4.1402,4.1387,4.1457,4.147,4.1543,4.1554,4.1664,4.1684,4.1695,4.1697,4.1696,4.1695,4.1723,4.1713,4.1699,4.1697,4.1696,4.1695,0,4.0994,4.1013,4.1135,4.119,4.1207,4.1286,4.1333,4.14,4.142,4.1514,4.1537,4.1568,4.1654,4.1672,4.1774,4.1781,4.1912,4.1903,4.1892,4.1891,4.1969,4.1961,4.222,4.2254,4.2039,4.2041,4.2043,0,4.1105,4.1181,4.1245,4.1293,4.1327,4.1405,4.1455,4.1464,4.1515,4.1587,4.1645,4.1729,4.1796,4.1933,4.1965,4.2043,4.2036,4.2121,4.2047,4.2044,4.2036,4.2031,4.2038,4.2135,4.2137,4.2139,4.2141,0,4.1302,4.1307,4.1378,4.1453,4.1512,4.1571,4.1628,4.1669,4.1685,4.1745,4.1831,4.1883,4.1986,4.2069,4.2147,4.218,4.2164,4.2164,4.2186,4.2186,4.2176,4.2181,4.1929,4.2158,4.2156,4.2155,4.2154,4.2153,4.144,4.1506,4.1561,4.164,4.1684,4.1737,4.1802,4.1829,4.1901,4.1985,4.1987,4.2081,4.2137,4.2239,4.2277,4.2351,4.2324,4.2357,4.2365,4.2372,4.2379,4.2165,4.2365,4.2365,4.2364,4.2364,4.2364,0,4.1635,4.1668,4.1741,4.182,4.1883,4.1862,4.1923,4.1977,4.206,4.2113,4.2179,4.2278,4.2359,4.2397,4.2476,4.2528,4.2523,4.2549,4.2545,4.2552,4.2399,4.2371,4.2552,4.2552,4.2552,4.2552,4.2552,4.2552,4.1743,4.1853,4.1865,4.1996,4.2029,4.2121,4.2158,4.2207,4.2249,4.236,4.2426,4.245,4.2497,4.258,4.2653,4.2662,4.2691,4.2721,4.2727,4.2582,4.2563,4.2545,4.2519,4.2728,4.2728,4.2874,4.2875,4.2876]},{"header":{"parameterUnit":"m.s-1","parameterCategory":1,"la1":30.2991,"la2":30.254,"lo1":-89.0895,"lo2":-89.0444,"dy":0.0017,"dx":0.0017,"nx":28,"ny":28,"refTime":"2025-12-30T03:00:00:Z","depth":0,"parameterNumber":3,"parameterNumberName":"V-component_of_WINDS"},"data":[0,0,0,0,0,0,0,0,0,0,0,0,0,0,0,0,0,0,0,0,0,0,0,0,0,0,0,0,0,0,0,0,0,0,0,0,0,0,0,0,0,0,0,0,0,0,0,0,0,0,0,0,0,0,0,0,0,0,0.315,0.315,0,0.3128,0.3128,0.3127,0.3122,0.3123,0.3123,0.3123,0.31,0.3099,0.3099,0,0,0,0,0,0,0,0,0,0,0,0,0,0.3187,0.3186,0.315,0.315,0.3149,0.3128,0.3128,0.3127,0.3122,0.3123,0.3123,0.3123,0.31,0.3099,0.3099,0,0,0,0,0,0,0,0,0,0,0,0,0,0.3169,0.3186,0.315,0.3144,0.3144,0.3128,0.3128,0.3127,0.3122,0.3123,0.3123,0.3123,0.3101,0.31,0.3098,0.3087,0,0,0.3095,0.3094,0,0,0,0,0,0,0,0,0.317,0.3167,0.3146,0.3145,0.3144,0.3128,0.3132,0.3114,0.3122,0.313,0.3123,0.3123,0.3109,0.3107,0.3103,0.3086,0.3085,0.3095,0.3094,0.3094,0.3093,0,0,0,0,0,0,0,0.3171,0.3168,0.3141,0.3145,0.3144,0.3143,0.314,0.3129,0.3119,0.313,0.3129,0.3127,0.3109,0.3104,0.3102,0.3084,0.3095,0.3094,0.3093,0.3093,0.3055,0.3055,0,0,0,0,0,0,0.3173,0.3169,0.3142,0.3141,0.3158,0.3142,0.3139,0.3133,0.3119,0.3117,0.3127,0.3127,0.3106,0.3103,0.3101,0.3086,0.3094,0.3093,0.3092,0.3056,0.3055,0.3055,0,0,0,0,0,0,0.3174,0.3171,0.3143,0.3155,0.3151,0.3141,0.3134,0.3132,0.3127,0.3117,0.3115,0.3123,0.3106,0.3103,0.309,0.3085,0.3092,0.3091,0.3056,0.3056,0.3055,0.3056,0,0,0,0,0,0,0.3175,0.3171,0.3167,0.3155,0.315,0.3132,0.3134,0.3132,0.3126,0.3125,0.3113,0.3111,0.3106,0.3092,0.3089,0.3084,0.309,0.3056,0.3056,0.3055,0.3056,0.3055,0.3055,0,0,0,0,0,0.3176,0.3168,0.3167,0.3163,0.3145,0.3132,0.313,0.3124,0.3125,0.3121,0.3113,0.3112,0.3086,0.3091,0.3087,0.3082,0.3057,0.3056,0.3055,0.3057,0.3056,0.3055,0,0,0,0,0,0,0.318,0.3167,0.3165,0.3152,0.3143,0.3131,0.3125,0.3123,0.3113,0.3114,0.3106,0.3104,0.3091,0.3085,0.309,0.3069,0.3071,0.307,0.3073,0.3072,0.3072,0.3073,0.3089,0,0,0,0,0,0.318,0.3171,0.3159,0.3149,0.3145,0.3136,0.313,0.3126,0.3116,0.3113,0.3105,0.3095,0.3085,0.3078,0.3068,0.3055,0.3052,0.305,0.3049,0.3048,0.3047,0.3039,0.3037,0.3053,0.3053,0.3053,0,0,0.3178,0.317,0.3164,0.315,0.3142,0.3132,0.3133,0.3123,0.3115,0.3111,0.3098,0.3092,0.3081,0.3068,0.3061,0.3062,0.3042,0.3047,0.3047,0.3046,0.3038,0.3036,0.3035,0.3052,0.3052,0.3052,0,0,0.3171,0.3164,0.3154,0.3147,0.3135,0.3129,0.3127,0.3115,0.3111,0.3098,0.3094,0.3085,0.3068,0.306,0.3053,0.3042,0.304,0.3039,0.3035,0.3027,0.3026,0.3025,0.302,0.3018,0.3038,0.3038,0.3038,0,0.317,0.3156,0.315,0.3139,0.3133,0.3128,0.3118,0.3111,0.3097,0.3093,0.3094,0.3071,0.3064,0.3048,0.3045,0.304,0.3037,0.304,0.3027,0.3025,0.3024,0.3019,0.3018,0.3038,0.3038,0.3038,0.3038,0,0.3156,0.3146,0.314,0.3126,0.3118,0.3109,0.31,0.3093,0.309,0.3083,0.307,0.306,0.3048,0.3044,0.304,0.3027,0.3028,0.3028,0.303,0.3023,0.3018,0.3016,0.3038,0.3038,0.3038,0.3038,0,0,0.3151,0.3133,0.3131,0.3124,0.3111,0.3103,0.3092,0.308,0.3074,0.3064,0.3055,0.304,0.3039,0.3032,0.3028,0.3021,0.3011,0.3021,0.3021,0.3019,0.2995,0.2995,0.2993,0.3009,0.3009,0.3009,0.2996,0,0.3141,0.3123,0.3116,0.31,0.3091,0.3086,0.3076,0.3067,0.3061,0.3051,0.3044,0.3033,0.3034,0.3029,0.3022,0.3014,0.3006,0.3015,0.3,0.3,0.3003,0.2991,0.2991,0.2979,0.2994,0.2994,0.2994,0,0.3128,0.3118,0.3101,0.3088,0.3084,0.3076,0.3063,0.3055,0.3043,0.3039,0.3031,0.3026,0.3014,0.3017,0.3,0.3006,0.3,0.2995,0.2994,0.2992,0.2996,0.2988,0.2975,0.2973,0.2991,0.2991,0.2991,0,0.3125,0.3107,0.3095,0.3089,0.3074,0.3068,0.3062,0.3051,0.3044,0.3033,0.3028,0.3016,0.3009,0.3,0.2992,0.2995,0.2975,0.2978,0.2971,0.2971,0.2967,0.2967,0.2952,0.2963,0.2963,0.2964,0.2964,0,0.3115,0.3105,0.3093,0.3085,0.3074,0.3066,0.3054,0.3047,0.3037,0.3028,0.3023,0.3014,0.3004,0.2994,0.2988,0.2974,0.2971,0.2967,0.2965,0.2967,0.2968,0.2963,0.2963,0.2963,0.2963,0.2963,0.2963,0,0.311,0.3102,0.3088,0.3074,0.3071,0.3062,0.3051,0.3043,0.3036,0.3024,0.302,0.3009,0.2997,0.2988,0.2972,0.2968,0.2953,0.2951,0.2956,0.2955,0.2949,0.2949,0.293,0.2927,0.294,0.294,0.294,0,0.3104,0.3096,0.3082,0.3075,0.3068,0.3057,0.305,0.3042,0.3034,0.302,0.3013,0.3,0.299,0.2969,0.296,0.2947,0.2945,0.2939,0.2943,0.2945,0.2944,0.2944,0.2943,0.2938,0.2938,0.2938,0.2938,0,0.3094,0.309,0.308,0.3067,0.3058,0.3048,0.3038,0.3033,0.3023,0.3014,0.3001,0.2993,0.2976,0.2962,0.2949,0.2941,0.2938,0.2937,0.2934,0.2936,0.2939,0.2937,0.2954,0.2937,0.2937,0.2938,0.2938,0.2938,0.3088,0.308,0.3069,0.3057,0.3048,0.3039,0.303,0.3022,0.3011,0.2997,0.2992,0.2979,0.2967,0.2948,0.294,0.2928,0.2929,0.2926,0.2925,0.2924,0.2923,0.2941,0.2926,0.2926,0.2926,0.2926,0.2926,0,0.3077,0.3069,0.3058,0.3044,0.3035,0.3032,0.3021,0.3013,0.3001,0.299,0.2979,0.2963,0.295,0.2939,0.2925,0.2918,0.2916,0.2915,0.2915,0.2913,0.2924,0.2927,0.2917,0.2917,0.2917,0.2917,0.2917,0.2917,0.307,0.3057,0.3051,0.3034,0.3026,0.3012,0.3006,0.2996,0.2988,0.2971,0.296,0.2953,0.2941,0.2926,0.2914,0.2911,0.2906,0.2905,0.2901,0.2912,0.2913,0.2914,0.2917,0.2904,0.2904,0.2891,0.2891,0.2891]}]]